Location: Valencia
(39.4670°N, 0.3670°W)
Time: 08:49:06
(UTC+02:00)

ISS - Pass Details

Date: 08 July 2017
Orbit: 400 x 408 km, 51.6° (Epoch: 21 July)

Event Time Altitude Azimuth Distance (km) Brightness Sun altitude
Exits shadow 05:15:10 29° 235° (SW) 764 -3.0 -14.0°
Maximum altitude 05:16:40 84° 319° (NW) 407 -3.9 -13.8°
Drops below altitude 10° 05:19:57 10° 51° (NE) 1,457 0.4 -13.4°
Sets 05:22:02 0° 52° (NE) 2,321 2.0 -13.1°
